Date,TemperatureHighF,TemperatureAvgF,TemperatureLowF,DewpointHighF,DewpointAvgF,DewpointLowF,HumidityHigh,HumidityAvg,HumidityLow,PressureMaxIn,PressureMinIn,WindSpeedMaxMPH,WindSpeedAvgMPH,GustSpeedMaxMPH,PrecipitationSumIn
2013-3-1,31,26,21,21,20,16,83,75,62,30.30,30.16,7,3,15,0.00
2013-3-2,31,22,10,17,13,8,90,71,43,30.30,30.13,2,0,8,0.00
2013-3-3,34,26,17,17,15,11,79,62,46,30.13,29.92,9,1,15,0.00
2013-3-4,29,27,24,24,21,17,90,81,62,29.98,29.89,9,4,21,0.00
2013-3-5,30,27,24,27,24,22,90,90,90,30.25,29.92,7,3,14,0.01
2013-3-6,30,25,18,23,21,15,90,85,73,30.37,30.25,8,2,14,0.01
2013-3-7,32,21,7,23,17,5,90,82,70,30.33,30.23,8,2,14,0.13
2013-3-8,39,29,18,34,26,16,90,88,78,30.27,30.03,8,3,16,0.19
2013-3-9,38,36,35,35,34,32,90,90,90,30.03,29.64,9,3,17,0.72
2013-3-10,36,34,31,33,31,28,90,90,90,29.89,29.72,12,6,22,0.13
2013-3-11,31,29,25,28,26,21,90,87,78,29.81,29.70,9,6,16,0.01
2013-3-12,29,26,23,24,20,14,90,79,59,30.14,29.78,8,3,16,0.00
2013-3-13,32,23,14,22,17,12,90,78,55,30.34,30.14,7,1,12,0.00
2013-3-14,42,32,25,33,27,22,90,83,67,30.21,29.97,7,2,16,0.03
2013-3-15,35,32,28,32,30,24,90,90,90,29.97,29.76,7,1,13,0.12
2013-3-16,28,24,17,25,19,11,90,81,63,30.19,29.83,7,3,12,0.01
2013-3-17,29,20,10,25,12,5,83,72,61,30.22,29.82,11,4,21,0.01
2013-3-18,31,24,14,28,21,10,90,86,80,29.83,29.55,12,7,28,0.00
2013-3-19,24,15,8,12,7,2,84,71,51,30.15,29.78,8,3,17,0.01
2013-3-20,23,14,7,9,5,0,75,65,53,30.17,30.06,8,2,15,0.01
2013-3-21,29,17,3,14,8,-1,89,69,49,30.09,29.98,0,0,8,0.01
2013-3-22,37,23,8,21,14,5,90,70,45,30.05,29.98,3,0,8,0.01
2013-3-23,40,29,18,24,21,16,90,72,46,30.11,30.02,3,0,8,0.00
2013-3-24,33,31,28,28,26,23,90,81,67,30.06,29.92,9,3,17,0.00
2013-3-25,39,32,25,28,22,19,87,66,45,30.17,29.98,7,2,15,0.00
2013-3-26,40,32,27,27,25,23,87,75,53,30.26,30.17,4,0,10,0.00
2013-3-27,44,32,20,28,22,18,90,69,41,30.30,30.25,4,0,10,0.00
2013-3-28,45,34,23,30,26,21,90,72,48,30.30,30.23,9,1,12,0.00
2013-3-29,51,40,31,41,34,28,90,79,56,30.24,30.01,8,2,15,0.00
2013-3-30,53,45,36,48,39,-100,90,85,70,30.02,29.80,11,4,21,0.13
2013-3-31,40,35,27,35,27,17,90,73,42,30.04,29.76,9,4,18,0.01